Regional Weather Roundup
Issued by NWS Green Bay, WI

Home | Current Version | Previous Version | Graphics & Text | Print | Product List | Glossary Off
Versions: 1 2 3 4 5 6 7 8 9 10 11 12 13 14 15 16 17 18 19 20 21 22 23 24 25 26 27 28 29 30 31 32 33 34 35 36 37 38 39 40 41 42 43 44 45 46 47 48 49 50

000
ASUS43 KGRB 210010
RWRGRB

NORTH-CENTRAL AND NORTHEAST WISCONSIN REGIONAL WEATHER ROUNDUP
NATIONAL WEATHER SERVICE GREEN BAY WI
700 PM CDT WED AUG 20 2014

WIZ005-009-010>012-018-019-210100-
NORTH CENTRAL WISCONSIN

CITY           SKY/WX    TMP DP  RH WIND       PRES   REMARKS
IRONWOOD       CLOUDY    64  61  88 CALM      29.92S
MANITOWISH WTR CLOUDY    65  61  87 CALM      29.94S
ARBOR VITAE    CLOUDY    67  60  76 NE3       29.95S
EAGLE RIVER    CLOUDY    66  59  79 CALM      29.94S
LAND O LAKES   CLOUDY    65  62  90 N3        29.96S
RHINELANDER    CLOUDY    67  60  78 CALM      29.95S
PHILLIPS       CLOUDY    67  62  83 CALM      29.93S
ANTIGO         CLOUDY    67  62  81 N3        29.94S
TOMAHAWK       CLOUDY    67  60  79 CALM      29.94S
MERRILL        CLOUDY    70  62  77 CALM      29.93S
$$

WIZ013-073-210100-
NORTHEAST WISCONSIN

CITY           SKY/WX    TMP DP  RH WIND       PRES   REMARKS
IRON MOUNTAIN  CLOUDY    68  61  78 N7        29.92R
MARINETTE      MOCLDY    70  63  78 CALM      29.90S
OCONTO         PTCLDY    71  65  83 SE3       29.89F
$$

WIZ017-030-035>037-045-210100-
CENTRAL WISCONSIN

CITY           SKY/WX    TMP DP  RH WIND       PRES   REMARKS
MEDFORD        PTCLDY    69  62  78 NE5       29.92F
WAUSAU         CLOUDY    73  60  63 CALM      29.90S
MOSINEE        PTCLDY    72  63  73 VRB5      29.92S
MARSHFIELD     PTCLDY    74  62  66 NE6       29.91S
WISC RAPIDS    PTCLDY    75  62  64 NE7       29.91S
STEVENS POINT  PTCLDY    71  60  68 N3        29.91S
WAUPACA        CLEAR     75  63  65 MISG      29.90S
SHAWANO        CLOUDY    73  64  72 CALM      29.91S
CLINTONVILLE   CLEAR     72  61  68 NE5       29.90S
$$

WIZ038-039-048-051-210100-
FOX VALLEY

CITY           SKY/WX    TMP DP  RH WIND       PRES   REMARKS
NWS GREEN BAY  CLEAR     74  63  68 CALM      29.90F
APPLETON       PTCLDY    73  61  64 N8        29.91
OSHKOSH        CLEAR     74  64  71 NE7       29.90R
FOND DU LAC    CLEAR     74  64  71 MISG      29.90R
$$

WIZ022-050-052-210100-
EAST CENTRAL WISCONSIN

CITY           SKY/WX    TMP DP  RH WIND       PRES   REMARKS
STURGEON BAY   CLEAR     70  61  73 NW3       29.92R
MANITOWOC      PTCLDY    68  64  87 SE3       29.92S
SHEBOYGAN      CLEAR     70  63  78 E5        29.91S
$$

LMZ563-521-522-541>543-210100-
LAKESHORE

STATION/POSITION TIME  TEMP    WIND        PRES    VSBY  WAVE
                       AIR SEA DIR/SP/G                  HT/PER
                 (UTC) (F)     (DEG/KT/KT) (MB)    (MI)  (FT/S)
SHEBOYGAN LKSHOR 0000   67 67  130/  2/  2 1012.8F
KEWAUNEE LKSHORE 0000   66     160/  7/  9 1012.1R
NORTHPORT PIER   0000   65     140/  4/  5 1012.9S
N MID LAKE BUOY  0000   63 63  220/  6/  6 1012.7R         1
S GREEN BAY BUOY 0000   70     VRB  4      1013.6R
SISTER BAY LKSHO 0000   68        CALM       N/A
CHAMBERS ISLAND  0000   68      CALM  /  3 1012.9S
MENOMINEE LKSHOR 0000   68     120/  2/  3 1013.3R
$$



USA.gov is the U.S. government's official web portal to all federal, state and local government web resources and services.